N2XGL-1 Weather Reports


Display with metric or nautical units.
time (UTC)temp
F
wind
direction
speed
MPH
gust
MPH
rain 1hr
in
rain 24hr
in
rain mn
in
humidity
%
barometer
mb
20260831050750 65 248 4.0 12.0 0.00 0.07 0.00 68 1008.8
20260831045921 64 248 2.0 4.0 0.00 0.07 0.00 70 1008.7
20260831044925 63 158 2.0 5.0 0.00 0.07 0.00 75 1008.7
20260831044036 63 112 2.0 4.0 0.00 0.07 0.00 75 1008.6
20260831043106 63 270 1.0 3.0 0.00 0.07 0.00 74 1008.5
20260831042114 63 248 1.0 2.0 0.00 0.07 0.00 73 1008.2
20260831041542 63 0 0.0 2.0 0.00 0.07 0.00 71 1007.8
20260831041135 63 0 0.0 2.0 0.00 0.07 0.00 71 1007.8
20260831040135 63 0 0.0 2.0 0.00 0.07 0.00 69 1007.7
20260831035539 63 0 1.0 2.0 0.00 0.07 0.00 71 1007.7
20260831035330 63 0 1.0 2.0 0.00 0.07 0.00 71 1007.7
20260831034436 63 292 1.0 3.0 0.00 0.07 0.00 73 1007.7
20260831033545 63 338 1.0 2.0 0.00 0.07 0.00 73 1007.6
20260831033506 63 338 1.0 2.0 0.00 0.07 0.00 73 1007.6
20260831032545 63 292 1.0 2.0 0.00 0.07 0.00 73 1007.7
20260831031725 63 0 0.0 2.0 0.00 0.07 0.00 71 1007.5
20260831030856 64 0 0.0 1.0 0.00 0.07 0.00 71 1007.3
20260831030027 64 292 1.0 3.0 0.00 0.07 0.00 72 1007.1
20260831025945 64 292 1.0 3.0 0.00 0.07 0.00 72 1007.1
20260831025000 65 270 1.0 3.0 0.00 0.07 0.00 73 1007.2
20260831024016 65 270 2.0 6.0 0.00 0.07 0.00 73 1007.1
20260831023454 65 135 1.0 2.0 0.00 0.07 0.00 72 1006.8
20260831023045 65 135 1.0 2.0 0.00 0.07 0.00 72 1006.8
20260831022146 66 158 1.0 4.0 0.00 0.07 0.00 71 1006.7
20260831021215 66 0 0.0 1.0 0.00 0.07 0.00 64 1006.4
20260831020306 66 315 1.0 2.0 0.00 0.07 0.00 64 1006.4
20260831015543 67 0 1.0 3.0 0.00 0.07 0.00 66 1006.4
20260831015325 67 0 1.0 3.0 0.00 0.07 0.00 66 1006.4
20260831014341 67 0 0.0 1.0 0.00 0.07 0.00 63 1006.3
20260831013546 68 338 1.0 2.0 0.00 0.07 0.00 64 1006.2
20260831013341 68 338 1.0 2.0 0.00 0.07 0.00 64 1006.2
20260831012536 68 338 1.0 2.0 0.00 0.07 0.00 63 1006.3
20260831011016 69 338 1.0 2.0 0.00 0.07 0.00 64 1006.0
20260831010915 69 338 1.0 2.0 0.00 0.07 0.00 64 1006.0
20260831010027 70 270 1.0 5.0 0.00 0.07 0.00 60 1006.0
20260831005945 70 270 1.0 5.0 0.00 0.07 0.00 60 1006.0
20260831005125 70 0 2.0 3.0 0.00 0.07 0.00 60 1005.9
20260831004156 70 338 1.0 3.0 0.00 0.07 0.00 60 1006.0
20260831003543 71 0 2.0 4.0 0.00 0.07 0.00 60 1006.1
20260831003235 71 0 2.0 4.0 0.00 0.07 0.00 60 1006.1
20260831002518 71 0 1.0 2.0 0.00 0.07 0.00 56 1006.0
20260831002346 71 0 1.0 2.0 0.00 0.07 0.00 56 1006.0
20260831001543 72 22 2.0 6.0 0.00 0.07 0.00 55 1006.2
20260831001511 72 22 2.0 6.0 0.00 0.07 0.00 55 1006.2
20260831000656 72 22 2.0 4.0 0.00 0.07 0.00 54 1006.2
20260830235835 73 68 2.0 4.0 0.00 0.07 0.00 54 1006.0
20260830235015 73 45 3.0 6.0 0.00 0.07 0.00 51 1006.1
20260830234855 73 45 3.0 6.0 0.00 0.07 0.00 51 1006.1
20260830233955 73 22 3.0 5.0 0.00 0.07 0.00 53 1005.9
20260830233542 73 90 2.0 7.0 0.00 0.07 0.00 53 1005.9
20260830233156 73 90 2.0 7.0 0.00 0.07 0.00 53 1005.9
20260830232246 73 45 6.0 11.0 0.01 0.07 0.00 51 1005.7
20260830231538 73 45 4.0 10.0 0.01 0.07 0.00 56 1005.7
20260830231406 73 45 4.0 10.0 0.01 0.07 0.00 56 1005.7
20260830230426 73 68 3.0 6.0 0.01 0.07 0.00 55 1005.5
20260830225520 74 135 5.0 14.0 0.01 0.07 0.00 56 1005.8
20260830225435 74 135 5.0 14.0 0.01 0.07 0.00 56 1005.8
20260830224441 74 112 4.0 10.0 0.01 0.07 0.00 54 1005.5
20260830223525 75 135 5.0 13.0 0.01 0.07 0.00 53 1005.7
20260830222706 74 180 2.0 6.0 0.01 0.07 0.00 47 1005.6
20260830222017 73 202 3.0 6.0 0.00 0.06 0.00 49 1005.6
20260830221836 73 202 3.0 6.0 0.00 0.06 0.00 49 1005.6
20260830220931 72 225 4.0 9.0 0.00 0.06 0.00 53 1005.7
20260830220046 72 225 4.0 10.0 0.00 0.06 0.00 50 1005.9
20260830215512 70 248 7.0 19.0 0.00 0.06 0.00 53 1006.1
20260830215210 70 248 7.0 19.0 0.00 0.06 0.00 53 1006.1
20260830214345 69 225 5.0 16.0 0.00 0.07 0.00 57 1006.5
20260830213406 69 292 2.0 5.0 0.00 0.07 0.00 65 1007.0
20260830212705 70 315 1.0 3.0 0.00 0.07 0.00 64 1006.9
20260830212600 70 315 1.0 3.0 0.00 0.07 0.00 64 1006.9
20260830211753 70 202 1.0 3.0 0.00 0.08 0.00 68 1007.3
20260830211717 70 202 1.0 3.0 0.00 0.08 0.00 68 1007.3
20260830210826 70 158 2.0 6.0 0.01 0.08 0.00 60 1006.9
20260830210016 68 270 6.0 11.0 0.01 0.08 0.00 73 1006.9
20260830205026 68 248 7.0 17.0 0.01 0.08 0.00 71 1006.7
20260830204215 68 248 9.0 19.0 0.01 0.08 0.00 69 1006.8
20260830204115 68 248 9.0 19.0 0.01 0.08 0.00 69 1006.8
20260830203215 68 248 5.0 17.0 0.01 0.08 0.00 80 1006.6
20260830202531 69 270 2.0 4.0 0.02 0.08 0.00 83 1006.7
20260830202357 69 270 2.0 4.0 0.02 0.08 0.00 83 1006.7
20260830201521 69 22 1.0 2.0 0.05 0.07 0.00 82 1006.1
20260830200545 70 0 1.0 3.0 0.05 0.07 0.00 83 1005.9
20260830195550 69 90 1.0 3.0 0.05 0.07 0.00 84 1005.5
20260830194620 68 315 1.0 2.0 0.05 0.07 0.00 82 1005.1
20260830193905 68 315 2.0 4.0 0.05 0.07 0.00 85 1005.1
20260830193805 68 315 2.0 4.0 0.05 0.07 0.00 85 1005.1
20260830192907 70 45 4.0 10.0 0.05 0.07 0.00 73 1004.5
20260830192830 70 45 4.0 10.0 0.05 0.07 0.00 73 1004.5
20260830192006 75 292 8.0 19.0 0.03 0.05 0.00 62 1005.4
20260830191130 79 270 16.0 27.0 0.00 0.02 0.00 56 1005.3
20260830190236 81 338 2.0 4.0 0.00 0.02 0.00 47 1004.0
20260830185523 81 45 3.0 5.0 0.00 0.02 0.00 40 1003.6
20260830185413 81 45 3.0 5.0 0.00 0.02 0.00 40 1003.6
20260830184416 82 90 3.0 6.0 0.00 0.02 0.00 44 1003.7
20260830183656 82 90 3.0 10.0 0.00 0.02 0.00 44 1003.9
20260830183616 82 90 3.0 10.0 0.00 0.02 0.00 44 1003.9
20260830182655 81 68 3.0 5.0 0.00 0.02 0.00 46 1003.7
20260830181826 81 45 5.0 11.0 0.00 0.02 0.00 43 1003.7
20260830181001 81 68 3.0 7.0 0.00 0.02 0.00 42 1003.9
20260830180537 80 68 2.0 4.0 0.00 0.02 0.00 44 1003.9
20260830180151 80 68 2.0 4.0 0.00 0.02 0.00 44 1003.9
20260830175520 81 135 1.0 4.0 0.00 0.02 0.00 43 1004.0
20260830175226 81 135 1.0 4.0 0.00 0.02 0.00 43 1004.0
20260830174251 81 45 3.0 6.0 0.00 0.02 0.00 42 1004.2
20260830173355 81 68 2.0 5.0 0.00 0.02 0.00 44 1004.4
20260830172516 81 202 1.0 4.0 0.00 0.02 0.00 43 1004.5
20260830171520 80 0 1.0 4.0 0.00 0.02 0.00 44 1004.6
20260830170621 80 315 1.0 4.0 0.00 0.02 0.00 45 1004.6
20260830165705 79 0 4.0 10.0 0.00 0.02 0.00 44 1004.7
20260830165017 79 0 5.0 9.0 0.00 0.02 0.00 45 1004.7
20260830164806 79 0 5.0 9.0 0.00 0.02 0.00 45 1004.7
20260830163815 78 0 3.0 11.0 0.00 0.02 0.00 45 1004.7
20260830162936 77 315 2.0 7.0 0.00 0.02 0.00 45 1004.8
20260830162543 77 292 2.0 5.0 0.00 0.02 0.00 50 1004.8
20260830162130 77 292 2.0 5.0 0.00 0.02 0.00 50 1004.8
20260830161221 76 270 4.0 8.0 0.00 0.02 0.00 52 1004.9
20260830155456 72 248 5.0 9.0 0.00 0.02 0.00 53 1004.9
20260830154656 71 225 4.0 11.0 0.00 0.02 0.00 54 1004.8
20260830153904 69 225 2.0 4.0 0.00 0.02 0.00 62 1004.9
20260830153810 69 225 2.0 4.0 0.00 0.02 0.00 62 1004.9
20260830152925 68 180 3.0 9.0 0.00 0.02 0.00 69 1004.9
20260830152115 68 180 3.0 6.0 0.00 0.02 0.00 73 1005.0
20260830151226 67 158 1.0 2.0 0.00 0.02 0.00 74 1005.1
20260830150406 66 158 1.0 2.0 0.00 0.02 0.00 75 1005.3
20260830145415 66 0 0.0 1.0 0.00 0.02 0.00 74 1005.0
20260830144541 65 0 0.0 1.0 0.00 0.02 0.00 74 1004.9
20260830144441 65 0 0.0 1.0 0.00 0.02 0.00 74 1004.9
20260830143543 65 45 1.0 2.0 0.00 0.02 0.00 74 1004.7
20260830143450 65 45 1.0 2.0 0.00 0.02 0.00 74 1004.7
20260830142536 64 0 1.0 2.0 0.00 0.02 0.00 75 1004.8
20260830141705 64 0 1.0 3.0 0.00 0.02 0.00 74 1004.8
20260830141600 64 0 1.0 3.0 0.00 0.02 0.00 74 1004.8
20260830140656 63 22 1.0 3.0 0.00 0.02 0.00 75 1004.7
20260830135836 63 292 1.0 2.0 0.00 0.02 0.00 75 1004.7
20260830134956 63 0 0.0 1.0 0.00 0.02 0.00 75 1004.6
20260830134856 63 0 0.0 1.0 0.00 0.02 0.00 75 1004.6
20260830133914 62 0 0.0 1.0 0.00 0.02 0.00 75 1004.6
20260830133108 62 292 1.0 1.0 0.00 0.02 0.00 74 1004.6
20260830133021 62 292 1.0 1.0 0.00 0.02 0.00 74 1004.6
20260830132541 62 0 0.0 1.0 0.00 0.02 0.00 74 1004.5
20260830132210 62 0 0.0 1.0 0.00 0.02 0.00 74 1004.5
20260830131306 63 292 1.0 2.0 0.00 0.02 0.00 74 1004.3
20260830130411 63 270 2.0 4.0 0.00 0.02 0.00 75 1004.4
20260830125522 62 90 1.0 2.0 0.00 0.02 0.00 75 1004.3
20260830124556 62 158 1.0 5.0 0.00 0.02 0.00 75 1004.3
20260830123708 62 112 3.0 5.0 0.00 0.02 0.00 75 1004.1
20260830123601 62 112 3.0 5.0 0.00 0.02 0.00 75 1004.1
20260830122708 62 45 2.0 3.0 0.00 0.02 0.00 72 1004.1
20260830122636 62 45 2.0 3.0 0.00 0.02 0.00 72 1004.1
20260830121726 62 270 1.0 2.0 0.00 0.02 0.00 74 1003.9
20260830120903 62 112 2.0 5.0 0.00 0.02 0.00 74 1003.6
20260830120740 62 112 2.0 5.0 0.00 0.02 0.00 74 1003.6
20260830115941 62 338 1.0 2.0 0.00 0.02 0.00 72 1003.6
20260830115906 62 338 1.0 2.0 0.00 0.02 0.00 72 1003.6
20260830115107 62 315 1.0 5.0 0.00 0.02 0.00 72 1003.7
20260830115026 62 315 1.0 5.0 0.00 0.02 0.00 72 1003.7
20260830114136 62 112 1.0 3.0 0.00 0.02 0.00 72 1003.6
20260830113540 63 68 1.0 2.0 0.00 0.02 0.00 72 1003.5
20260830113320 63 68 1.0 2.0 0.00 0.02 0.00 72 1003.5
20260830112326 63 0 0.0 1.0 0.00 0.02 0.00 71 1003.3
20260830111516 63 22 1.0 2.0 0.00 0.02 0.00 71 1003.2
20260830110536 63 22 2.0 4.0 0.00 0.02 0.00 72 1003.1
20260830105638 63 112 2.0 4.0 0.00 0.02 0.00 71 1003.0
20260830104936 63 45 2.0 4.0 0.00 0.02 0.00 71 1003.0
20260830104805 63 45 2.0 4.0 0.00 0.02 0.00 71 1003.0
20260830103841 63 0 0.0 2.0 0.00 0.02 0.00 73 1003.1
20260830102911 63 0 0.0 1.0 0.00 0.02 0.00 73 1003.1
20260830102339 63 0 0.0 1.0 0.00 0.02 0.00 75 1003.1
20260830102026 63 0 0.0 1.0 0.00 0.02 0.00 75 1003.1
20260830101140 63 0 0.0 2.0 0.00 0.02 0.00 75 1003.2
20260830100330 63 315 1.0 2.0 0.00 0.02 0.00 75 1003.2
20260830095421 63 0 0.0 1.0 0.00 0.02 0.00 75 1003.0
20260830094435 63 0 0.0 1.0 0.00 0.02 0.00 75 1002.8
20260830093601 63 270 1.0 4.0 0.00 0.02 0.00 74 1002.8
20260830092701 63 135 1.0 2.0 0.00 0.02 0.00 75 1002.8
20260830091836 63 0 0.0 2.0 0.00 0.02 0.00 74 1002.9
20260830091019 63 248 1.0 1.0 0.00 0.02 0.00 73 1003.2
20260830090855 63 248 1.0 1.0 0.00 0.02 0.00 73 1003.2
20260830085931 64 0 0.0 1.0 0.00 0.02 0.00 72 1002.9
20260830085521 64 0 0.0 1.0 0.00 0.02 0.00 72 1003.0
20260830085106 64 0 0.0 1.0 0.00 0.02 0.00 72 1003.0
20260830084539 64 180 1.0 2.0 0.00 0.02 0.00 71 1003.1
20260830084226 64 180 1.0 2.0 0.00 0.02 0.00 71 1003.1
20260830083426 64 0 0.0 1.0 0.00 0.02 0.00 71 1003.4
20260830082909 64 0 0.0 1.0 0.00 0.02 0.00 71 1003.3
20260830082505 64 0 0.0 1.0 0.00 0.02 0.00 71 1003.3
20260830081754 64 0 0.0 1.0 0.00 0.02 0.00 70 1003.4
20260830081555 64 0 0.0 1.0 0.00 0.02 0.00 70 1003.4
20260830080726 64 0 0.0 1.0 0.00 0.02 0.00 70 1003.3
20260830075731 64 0 0.0 2.0 0.00 0.02 0.00 67 1003.4
20260830074810 64 292 1.0 2.0 0.00 0.02 0.00 66 1003.3
20260830073925 64 0 0.0 1.0 0.00 0.02 0.00 65 1003.3
20260830072950 64 0 0.0 1.0 0.00 0.02 0.00 64 1003.5
20260830071950 65 292 1.0 3.0 0.00 0.02 0.00 63 1003.5
20260830071135 65 0 0.0 2.0 0.00 0.02 0.00 62 1003.5
20260830070311 65 0 0.0 1.0 0.00 0.02 0.00 62 1003.6
20260830065512 66 0 0.0 2.0 0.00 0.02 0.00 61 1003.7
20260830064910 67 0 0.0 2.0 0.00 0.02 0.00 61 1003.8
20260830064640 67 0 0.0 2.0 0.00 0.02 0.00 61 1003.8
20260830063641 67 0 0.0 2.0 0.00 0.02 0.00 61 1003.8
20260830062806 68 0 0.0 0.0 0.00 0.02 0.00 60 1003.9
20260830061851 69 112 1.0 3.0 0.00 0.02 0.00 58 1003.9
20260830061016 69 45 1.0 3.0 0.00 0.02 0.00 54 1004.0
20260830060120 69 180 2.0 3.0 0.00 0.02 0.00 52 1004.1
20260830055155 70 270 3.0 6.0 0.00 0.02 0.00 50 1004.0
20260830054340 70 270 5.0 9.0 0.00 0.02 0.00 49 1003.9
20260830053440 70 270 6.0 11.0 0.00 0.02 0.00 49 1003.8
20260830052541 71 270 6.0 9.0 0.00 0.02 0.00 48 1003.9
20260830051641 71 270 6.0 11.0 0.00 0.02 0.00 47 1004.0